Time,TemperatureF,DewpointF,PressureIn,WindDirection,WindDirectionDegrees,WindSpeedMPH,WindSpeedGustMPH,Humidity,HourlyPrecipIn,Conditions,Clouds,dailyrainin,SoftwareType,DateUTC
2013-05-26 00:04:00,69.6,66.2,30.05,North,0,0.0,0.0,89,0.00,,,0.00,WUHU216HW,2013-05-26 05:04:00,
2013-05-26 00:09:00,69.6,66.2,30.05,North,0,0.0,0.0,89,0.00,,,0.00,WUHU216HW,2013-05-26 05:09:00,
2013-05-26 00:14:00,69.8,66.4,30.06,North,0,0.0,0.0,89,0.00,,,0.00,WUHU216HW,2013-05-26 05:14:00,
2013-05-26 00:19:00,69.8,66.4,30.05,North,0,0.0,0.0,90,0.00,,,0.00,WUHU216HW,2013-05-26 05:19:00,
2013-05-26 00:24:00,69.8,66.4,30.06,North,0,0.0,0.0,90,0.00,,,0.00,WUHU216HW,2013-05-26 05:24:00,
2013-05-26 00:29:00,69.9,66.9,30.05,North,0,0.0,0.0,90,0.00,,,0.00,WUHU216HW,2013-05-26 05:29:00,
2013-05-26 00:34:00,69.9,66.9,30.05,North,0,0.0,0.0,90,0.00,,,0.00,WUHU216HW,2013-05-26 05:34:00,
2013-05-26 00:39:00,69.9,66.9,30.05,North,0,0.0,0.0,90,0.00,,,0.00,WUHU216HW,2013-05-26 05:39:00,
2013-05-26 00:44:00,69.9,66.9,30.05,North,0,0.0,0.0,90,0.00,,,0.00,WUHU216HW,2013-05-26 05:44:00,
2013-05-26 00:49:00,69.9,66.9,30.05,North,0,0.0,0.0,90,0.00,,,0.00,WUHU216HW,2013-05-26 05:49:00,
2013-05-26 00:54:00,70.1,67.1,30.05,North,0,0.0,0.0,90,0.00,,,0.00,WUHU216HW,2013-05-26 05:54:00,
2013-05-26 00:59:00,70.1,67.1,30.05,North,0,0.0,0.0,90,0.00,,,0.00,WUHU216HW,2013-05-26 05:59:00,
2013-05-26 01:04:00,70.1,67.1,30.04,North,0,0.0,0.0,90,0.00,,,0.00,WUHU216HW,2013-05-26 06:04:00,
2013-05-26 01:09:00,70.3,67.2,30.04,North,0,0.0,0.0,90,0.00,,,0.00,WUHU216HW,2013-05-26 06:09:00,
2013-05-26 01:14:00,70.3,67.2,30.04,North,0,0.0,0.0,90,0.00,,,0.00,WUHU216HW,2013-05-26 06:14:00,
2013-05-26 01:19:00,70.3,67.2,30.03,North,0,0.0,0.0,90,0.00,,,0.00,WUHU216HW,2013-05-26 06:19:00,
2013-05-26 01:24:00,70.3,67.2,30.03,North,0,0.0,0.0,90,0.00,,,0.00,WUHU216HW,2013-05-26 06:24:00,
2013-05-26 01:29:00,70.3,67.2,30.03,North,0,0.0,0.0,90,0.00,,,0.00,WUHU216HW,2013-05-26 06:29:00,
2013-05-26 01:34:00,70.3,67.2,30.03,North,0,0.0,0.0,90,0.00,,,0.00,WUHU216HW,2013-05-26 06:34:00,
2013-05-26 01:39:00,70.3,67.2,30.02,North,0,0.0,0.0,90,0.00,,,0.00,WUHU216HW,2013-05-26 06:39:00,
2013-05-26 01:44:00,70.5,67.4,30.02,North,0,0.0,0.0,90,0.00,,,0.00,WUHU216HW,2013-05-26 06:44:00,
2013-05-26 01:49:00,70.5,67.4,30.02,North,0,0.0,0.0,90,0.00,,,0.00,WUHU216HW,2013-05-26 06:49:00,
2013-05-26 01:54:00,70.5,67.4,30.03,North,0,0.0,0.0,90,0.00,,,0.00,WUHU216HW,2013-05-26 06:54:00,
2013-05-26 02:00:00,70.5,67.4,30.03,North,0,0.0,0.0,90,0.00,,,0.00,WUHU216HW,2013-05-26 07:00:00,
2013-05-26 02:05:00,70.5,67.4,30.03,North,0,0.0,0.0,90,0.00,,,0.00,WUHU216HW,2013-05-26 07:05:00,
2013-05-26 02:10:00,70.5,67.4,30.02,North,0,0.0,0.0,90,0.00,,,0.00,WUHU216HW,2013-05-26 07:10:00,
2013-05-26 02:15:00,70.5,67.4,30.03,North,0,0.0,0.0,90,0.00,,,0.00,WUHU216HW,2013-05-26 07:15:00,
2013-05-26 02:20:00,70.5,67.4,30.02,North,0,0.0,0.0,90,0.00,,,0.00,WUHU216HW,2013-05-26 07:20:00,
2013-05-26 02:25:00,70.5,67.4,30.02,North,0,0.0,0.0,90,0.00,,,0.00,WUHU216HW,2013-05-26 07:25:00,
2013-05-26 02:30:00,70.5,67.4,30.02,North,0,0.0,0.0,90,0.00,,,0.00,WUHU216HW,2013-05-26 07:30:00,
2013-05-26 02:35:00,70.5,67.4,30.01,North,0,0.0,0.0,90,0.00,,,0.00,WUHU216HW,2013-05-26 07:35:00,
2013-05-26 02:40:00,70.5,67.4,30.01,North,0,0.0,0.0,90,0.00,,,0.00,WUHU216HW,2013-05-26 07:40:00,
2013-05-26 02:45:00,70.5,67.4,30.01,North,0,0.0,0.0,90,0.00,,,0.00,WUHU216HW,2013-05-26 07:45:00,
2013-05-26 02:50:00,70.5,67.4,30.02,North,0,0.0,0.0,90,0.00,,,0.00,WUHU216HW,2013-05-26 07:50:00,
2013-05-26 02:55:00,70.5,67.4,30.02,North,0,0.0,0.0,90,0.00,,,0.00,WUHU216HW,2013-05-26 07:55:00,
2013-05-26 03:00:00,70.5,67.4,30.02,North,0,0.0,0.0,90,0.00,,,0.00,WUHU216HW,2013-05-26 08:00:00,
2013-05-26 03:05:00,70.5,67.4,30.02,North,0,0.0,0.0,90,0.00,,,0.00,WUHU216HW,2013-05-26 08:05:00,
2013-05-26 03:10:00,70.5,67.4,30.02,North,0,0.0,0.0,90,0.00,,,0.00,WUHU216HW,2013-05-26 08:10:00,
2013-05-26 03:15:00,70.5,67.4,30.02,North,0,0.0,0.0,90,0.00,,,0.00,WUHU216HW,2013-05-26 08:15:00,
2013-05-26 03:20:00,70.5,67.4,30.02,North,0,0.0,0.0,90,0.00,,,0.00,WUHU216HW,2013-05-26 08:20:00,
2013-05-26 03:25:00,70.5,67.4,30.02,North,0,0.0,0.0,90,0.00,,,0.00,WUHU216HW,2013-05-26 08:25:00,
2013-05-26 03:30:00,70.5,67.4,30.02,North,0,0.0,0.0,90,0.00,,,0.00,WUHU216HW,2013-05-26 08:30:00,
2013-05-26 03:35:00,70.5,67.4,30.02,North,0,0.0,0.0,90,0.00,,,0.00,WUHU216HW,2013-05-26 08:35:00,
2013-05-26 03:40:00,70.5,67.4,30.03,North,0,0.0,0.0,90,0.00,,,0.00,WUHU216HW,2013-05-26 08:40:00,
2013-05-26 03:45:00,70.5,67.4,30.03,North,0,0.0,0.0,90,0.00,,,0.00,WUHU216HW,2013-05-26 08:45:00,
2013-05-26 03:50:00,70.5,67.4,30.02,North,0,0.0,0.0,90,0.00,,,0.00,WUHU216HW,2013-05-26 08:50:00,
2013-05-26 03:55:00,70.5,67.4,30.02,North,0,0.0,0.0,90,0.00,,,0.00,WUHU216HW,2013-05-26 08:55:00,
2013-05-26 04:00:00,70.5,67.4,30.03,North,0,0.0,0.0,90,0.00,,,0.00,WUHU216HW,2013-05-26 09:00:00,
2013-05-26 04:05:00,70.5,67.4,30.03,North,0,0.0,0.0,90,0.00,,,0.00,WUHU216HW,2013-05-26 09:05:00,
2013-05-26 04:10:00,70.5,67.4,30.02,North,0,0.0,0.0,90,0.00,,,0.00,WUHU216HW,2013-05-26 09:10:00,
2013-05-26 04:15:00,70.5,67.4,30.03,North,0,0.0,0.0,90,0.00,,,0.00,WUHU216HW,2013-05-26 09:15:00,
2013-05-26 04:20:00,70.5,67.4,30.03,North,0,0.0,0.0,90,0.00,,,0.00,WUHU216HW,2013-05-26 09:20:00,
2013-05-26 04:25:00,70.5,67.4,30.02,North,0,0.0,0.0,90,0.00,,,0.00,WUHU216HW,2013-05-26 09:25:00,
2013-05-26 04:30:00,70.5,67.4,30.01,North,0,0.0,0.0,90,0.00,,,0.00,WUHU216HW,2013-05-26 09:30:00,
2013-05-26 04:35:00,70.5,67.4,30.01,North,0,0.0,0.0,90,0.00,,,0.00,WUHU216HW,2013-05-26 09:35:00,
2013-05-26 04:40:00,70.5,67.4,30.00,North,0,0.0,0.0,90,0.00,,,0.00,WUHU216HW,2013-05-26 09:40:00,
2013-05-26 04:45:00,70.5,67.4,30.01,North,0,0.0,0.0,90,0.00,,,0.00,WUHU216HW,2013-05-26 09:45:00,
2013-05-26 04:50:00,70.3,67.2,30.01,North,0,0.0,0.0,90,0.00,,,0.00,WUHU216HW,2013-05-26 09:50:00,
2013-05-26 04:55:00,70.3,67.2,30.01,North,0,0.0,0.0,90,0.00,,,0.00,WUHU216HW,2013-05-26 09:55:00,
2013-05-26 05:00:00,70.3,67.2,30.01,North,0,0.0,0.0,90,0.00,,,0.00,WUHU216HW,2013-05-26 10:00:00,
2013-05-26 05:05:00,70.3,67.2,30.01,North,0,0.0,0.0,90,0.00,,,0.00,WUHU216HW,2013-05-26 10:05:00,
2013-05-26 05:10:00,70.3,67.2,30.01,North,0,0.0,0.0,90,0.00,,,0.00,WUHU216HW,2013-05-26 10:10:00,
2013-05-26 05:15:00,70.3,67.2,30.01,North,0,0.0,0.0,90,0.00,,,0.00,WUHU216HW,2013-05-26 10:15:00,
2013-05-26 05:20:00,70.3,67.2,30.02,North,0,0.0,0.0,90,0.00,,,0.00,WUHU216HW,2013-05-26 10:20:00,
2013-05-26 05:25:00,70.3,67.2,30.02,North,0,0.0,0.0,90,0.00,,,0.00,WUHU216HW,2013-05-26 10:25:00,
2013-05-26 05:30:00,70.3,67.2,30.02,North,0,0.0,0.0,90,0.00,,,0.00,WUHU216HW,2013-05-26 10:30:00,
2013-05-26 05:35:00,70.3,67.2,30.02,North,0,0.0,0.0,90,0.00,,,0.00,WUHU216HW,2013-05-26 10:35:00,
2013-05-26 05:40:00,70.3,67.2,30.02,North,0,0.0,0.0,90,0.00,,,0.00,WUHU216HW,2013-05-26 10:40:00,
2013-05-26 05:45:00,70.3,67.2,30.02,North,0,0.0,0.0,90,0.00,,,0.00,WUHU216HW,2013-05-26 10:45:00,
2013-05-26 05:50:00,70.3,67.2,30.02,North,0,0.0,0.0,90,0.00,,,0.00,WUHU216HW,2013-05-26 10:50:00,
2013-05-26 05:55:00,70.5,67.4,30.02,North,0,0.0,0.0,90,0.00,,,0.00,WUHU216HW,2013-05-26 10:55:00,
2013-05-26 06:00:00,70.5,67.4,30.02,North,0,0.0,0.0,90,0.00,,,0.00,WUHU216HW,2013-05-26 11:00:00,
2013-05-26 06:05:00,70.5,67.4,30.02,North,0,0.0,0.0,90,0.02,,,0.02,WUHU216HW,2013-05-26 11:05:00,
2013-05-26 06:10:00,70.3,67.2,30.02,North,0,0.0,0.0,90,0.04,,,0.04,WUHU216HW,2013-05-26 11:10:00,
2013-05-26 06:15:00,70.3,67.2,30.02,North,0,0.0,0.0,90,0.04,,,0.04,WUHU216HW,2013-05-26 11:15:00,
2013-05-26 06:20:00,70.3,67.2,30.01,North,0,0.0,0.0,90,0.04,,,0.04,WUHU216HW,2013-05-26 11:20:00,
2013-05-26 06:25:00,70.3,67.2,30.01,North,0,0.0,0.0,90,0.04,,,0.04,WUHU216HW,2013-05-26 11:25:00,
2013-05-26 06:30:00,70.1,67.1,30.01,North,0,0.0,0.0,90,0.04,,,0.04,WUHU216HW,2013-05-26 11:30:00,
2013-05-26 06:35:00,69.9,66.9,30.01,North,0,0.0,0.0,90,0.04,,,0.04,WUHU216HW,2013-05-26 11:35:00,
2013-05-26 06:40:00,69.9,66.9,30.01,North,0,0.0,0.0,90,0.04,,,0.04,WUHU216HW,2013-05-26 11:40:00,
2013-05-26 06:45:00,69.9,66.9,30.02,North,0,0.0,0.0,90,0.04,,,0.04,WUHU216HW,2013-05-26 11:45:00,
2013-05-26 06:50:00,69.9,66.9,30.01,North,0,0.0,0.0,90,0.04,,,0.04,WUHU216HW,2013-05-26 11:50:00,
2013-05-26 06:55:00,69.9,66.9,30.01,North,0,0.0,0.0,90,0.04,,,0.04,WUHU216HW,2013-05-26 11:55:00,
2013-05-26 07:00:00,69.9,66.9,30.01,North,0,0.0,0.0,90,0.04,,,0.04,WUHU216HW,2013-05-26 12:00:00,
2013-05-26 07:10:00,69.9,66.9,30.02,North,0,0.0,0.0,90,0.04,,,0.04,WUHU216HW,2013-05-26 12:10:00,
2013-05-26 07:15:00,69.9,66.9,30.03,North,0,0.0,0.0,90,0.04,,,0.04,WUHU216HW,2013-05-26 12:15:00,
2013-05-26 07:20:00,69.9,66.9,30.02,North,0,0.0,0.0,90,0.04,,,0.04,WUHU216HW,2013-05-26 12:20:00,
2013-05-26 07:25:00,69.9,66.9,30.02,North,0,0.0,0.0,90,0.00,,,0.04,WUHU216HW,2013-05-26 12:25:00,
2013-05-26 07:30:00,69.9,66.9,30.01,North,0,0.0,0.0,90,0.00,,,0.04,WUHU216HW,2013-05-26 12:30:00,
2013-05-26 07:35:00,69.9,66.9,30.01,North,0,0.0,0.0,90,0.00,,,0.04,WUHU216HW,2013-05-26 12:35:00,
2013-05-26 07:40:00,69.9,66.9,30.01,North,0,0.0,0.0,90,0.00,,,0.04,WUHU216HW,2013-05-26 12:40:00,
2013-05-26 07:45:00,69.9,66.9,30.01,North,0,0.0,0.0,90,0.00,,,0.04,WUHU216HW,2013-05-26 12:45:00,
2013-05-26 07:50:00,69.9,66.9,30.02,North,0,0.0,0.0,90,0.00,,,0.04,WUHU216HW,2013-05-26 12:50:00,
2013-05-26 07:55:00,69.9,66.9,30.02,North,0,0.0,0.0,90,0.00,,,0.04,WUHU216HW,2013-05-26 12:55:00,
2013-05-26 08:00:00,69.9,66.9,30.02,North,0,0.0,0.0,90,0.00,,,0.04,WUHU216HW,2013-05-26 13:00:00,
2013-05-26 08:05:00,69.9,66.9,30.02,North,0,0.0,0.0,90,0.00,,,0.04,WUHU216HW,2013-05-26 13:05:00,
2013-05-26 08:10:00,69.9,66.9,30.02,North,0,0.0,0.0,90,0.00,,,0.04,WUHU216HW,2013-05-26 13:10:00,
2013-05-26 08:15:00,69.9,66.9,30.02,North,0,0.0,0.0,90,0.00,,,0.04,WUHU216HW,2013-05-26 13:15:00,
2013-05-26 08:20:00,71.2,68.1,30.02,North,0,0.0,0.0,90,0.00,,,0.04,WUHU216HW,2013-05-26 13:20:00,
2013-05-26 08:25:00,71.2,68.1,30.02,North,0,0.0,0.0,90,0.00,,,0.04,WUHU216HW,2013-05-26 13:25:00,
2013-05-26 08:30:00,71.2,68.1,30.03,North,0,0.0,0.0,90,0.00,,,0.04,WUHU216HW,2013-05-26 13:30:00,
2013-05-26 08:35:00,71.4,68.3,30.03,North,0,0.0,0.0,90,0.00,,,0.04,WUHU216HW,2013-05-26 13:35:00,
2013-05-26 08:40:00,71.6,68.5,30.03,North,0,0.0,0.0,90,0.00,,,0.04,WUHU216HW,2013-05-26 13:40:00,
2013-05-26 08:45:00,71.7,68.7,30.04,North,0,0.0,0.0,90,0.00,,,0.04,WUHU216HW,2013-05-26 13:45:00,
2013-05-26 08:50:00,72.1,69.0,30.04,North,0,0.0,0.0,90,0.00,,,0.04,WUHU216HW,2013-05-26 13:50:00,
2013-05-26 08:55:00,72.5,69.4,30.04,North,0,0.0,0.0,90,0.00,,,0.04,WUHU216HW,2013-05-26 13:55:00,
2013-05-26 09:00:00,73.2,70.1,30.04,North,0,0.0,0.0,89,0.00,,,0.04,WUHU216HW,2013-05-26 14:00:00,
2013-05-26 09:05:00,73.7,70.0,30.04,North,0,0.0,0.0,88,0.00,,,0.04,WUHU216HW,2013-05-26 14:05:00,
2013-05-26 09:10:00,73.7,70.0,30.04,North,0,0.0,0.0,88,0.00,,,0.04,WUHU216HW,2013-05-26 14:10:00,
2013-05-26 09:15:00,73.7,70.0,30.04,North,0,0.0,0.0,88,0.00,,,0.04,WUHU216HW,2013-05-26 14:15:00,
2013-05-26 09:20:00,73.7,70.0,30.04,North,0,0.0,0.0,88,0.00,,,0.04,WUHU216HW,2013-05-26 14:20:00,
2013-05-26 09:25:00,73.5,69.4,30.04,North,0,0.0,0.0,87,0.00,,,0.04,WUHU216HW,2013-05-26 14:25:00,
2013-05-26 09:30:00,73.7,69.6,30.04,North,0,0.0,0.0,87,0.00,,,0.04,WUHU216HW,2013-05-26 14:30:00,
2013-05-26 09:35:00,73.7,69.6,30.04,North,0,0.0,0.0,87,0.00,,,0.04,WUHU216HW,2013-05-26 14:35:00,
2013-05-26 09:40:00,73.7,69.6,30.04,North,0,0.0,0.0,87,0.00,,,0.04,WUHU216HW,2013-05-26 14:40:00,
2013-05-26 09:45:00,73.9,69.8,30.04,North,0,0.0,0.0,87,0.00,,,0.04,WUHU216HW,2013-05-26 14:45:00,
2013-05-26 09:50:00,73.9,69.8,30.04,North,0,0.0,0.0,87,0.00,,,0.04,WUHU216HW,2013-05-26 14:50:00,
2013-05-26 09:55:00,73.9,69.8,30.04,North,0,0.0,0.0,87,0.00,,,0.04,WUHU216HW,2013-05-26 14:55:00,
2013-05-26 10:00:00,73.5,69.4,30.05,North,0,0.0,0.0,87,0.00,,,0.04,WUHU216HW,2013-05-26 15:00:00,
2013-05-26 10:05:00,73.5,69.4,30.04,North,0,0.0,0.0,88,0.00,,,0.04,WUHU216HW,2013-05-26 15:05:00,
2013-05-26 10:10:00,73.9,70.1,30.05,North,0,0.0,0.0,88,0.00,,,0.04,WUHU216HW,2013-05-26 15:10:00,
2013-05-26 10:15:00,73.9,70.1,30.04,North,0,0.0,0.0,88,0.00,,,0.04,WUHU216HW,2013-05-26 15:15:00,
2013-05-26 10:20:00,74.4,71.0,30.04,North,0,0.0,0.0,89,0.00,,,0.04,WUHU216HW,2013-05-26 15:20:00,
2013-05-26 10:25:00,75.3,71.2,30.04,North,0,0.0,0.0,87,0.00,,,0.04,WUHU216HW,2013-05-26 15:25:00,
2013-05-26 10:30:00,76.1,71.6,30.05,North,0,0.0,0.0,86,0.00,,,0.04,WUHU216HW,2013-05-26 15:30:00,
2013-05-26 10:35:00,76.2,71.1,30.05,North,0,0.0,0.0,84,0.00,,,0.04,WUHU216HW,2013-05-26 15:35:00,
2013-05-26 10:40:00,77.3,72.1,30.05,North,0,0.0,0.0,84,0.00,,,0.04,WUHU216HW,2013-05-26 15:40:00,
2013-05-26 10:45:00,77.3,71.4,30.05,North,0,0.0,0.0,82,0.00,,,0.04,WUHU216HW,2013-05-26 15:45:00,
2013-05-26 10:50:00,76.6,70.7,30.05,North,0,0.0,0.0,82,0.00,,,0.04,WUHU216HW,2013-05-26 15:50:00,
2013-05-26 10:55:00,76.6,70.7,30.05,North,0,0.0,0.0,83,0.00,,,0.04,WUHU216HW,2013-05-26 15:55:00,
2013-05-26 11:00:00,77.1,71.6,30.05,North,0,0.0,0.0,82,0.00,,,0.04,WUHU216HW,2013-05-26 16:00:00,
2013-05-26 11:05:00,77.1,71.6,30.05,North,0,0.0,0.0,82,0.00,,,0.04,WUHU216HW,2013-05-26 16:05:00,
2013-05-26 11:18:00,78.9,71.5,30.04,North,0,0.0,0.0,78,0.00,,,0.04,WUHU216HW,2013-05-26 16:18:00,
2013-05-26 11:23:00,79.1,71.7,30.04,North,0,0.0,0.0,78,0.00,,,0.04,WUHU216HW,2013-05-26 16:23:00,
2013-05-26 11:28:00,79.8,71.6,30.04,North,0,0.0,0.0,76,0.00,,,0.04,WUHU216HW,2013-05-26 16:28:00,
2013-05-26 11:33:00,79.8,71.6,30.03,North,0,0.0,0.0,76,0.00,,,0.04,WUHU216HW,2013-05-26 16:33:00,
2013-05-26 11:38:00,79.8,71.6,30.03,North,0,0.0,0.0,76,0.00,,,0.04,WUHU216HW,2013-05-26 16:38:00,
2013-05-26 11:48:00,79.8,72.0,30.04,North,0,0.0,0.0,76,0.00,,,0.04,WUHU216HW,2013-05-26 16:48:00,
2013-05-26 11:53:00,80.2,71.2,30.03,North,0,0.0,0.0,74,0.00,,,0.04,WUHU216HW,2013-05-26 16:53:00,
2013-05-26 11:59:00,80.6,71.5,30.03,North,0,0.0,0.0,74,0.00,,,0.04,WUHU216HW,2013-05-26 16:59:00,
2013-05-26 12:04:00,80.2,70.8,30.03,North,0,0.0,0.0,73,0.00,,,0.04,WUHU216HW,2013-05-26 17:04:00,
2013-05-26 12:09:00,80.2,71.9,30.03,North,0,0.0,0.0,75,0.00,,,0.04,WUHU216HW,2013-05-26 17:09:00,
2013-05-26 12:14:00,81.1,72.4,30.03,North,0,0.0,0.0,75,0.00,,,0.04,WUHU216HW,2013-05-26 17:14:00,
2013-05-26 12:19:00,81.3,71.8,30.03,North,0,0.0,0.0,73,0.00,,,0.04,WUHU216HW,2013-05-26 17:19:00,
2013-05-26 12:24:00,80.7,71.3,30.02,North,0,0.0,0.0,73,0.00,,,0.04,WUHU216HW,2013-05-26 17:24:00,
2013-05-26 12:29:00,81.1,71.6,30.02,North,0,0.0,0.0,73,0.00,,,0.04,WUHU216HW,2013-05-26 17:29:00,
2013-05-26 12:34:00,81.5,72.0,30.02,North,0,0.0,0.0,73,0.00,,,0.04,WUHU216HW,2013-05-26 17:34:00,
2013-05-26 12:39:00,81.6,71.7,30.02,North,0,0.0,0.0,72,0.00,,,0.04,WUHU216HW,2013-05-26 17:39:00,
2013-05-26 12:44:00,82.2,71.8,30.02,North,0,0.0,0.0,71,0.00,,,0.04,WUHU216HW,2013-05-26 17:44:00,
2013-05-26 12:49:00,82.0,71.6,30.02,North,0,0.0,0.0,71,0.00,,,0.04,WUHU216HW,2013-05-26 17:49:00,
2013-05-26 12:54:00,82.2,71.4,30.02,North,0,0.0,0.0,69,0.00,,,0.04,WUHU216HW,2013-05-26 17:54:00,
2013-05-26 12:59:00,83.1,73.1,30.01,North,0,0.0,0.0,72,0.00,,,0.04,WUHU216HW,2013-05-26 17:59:00,
2013-05-26 13:04:00,83.4,72.6,30.01,North,0,0.0,0.0,70,0.00,,,0.04,WUHU216HW,2013-05-26 18:04:00,
2013-05-26 13:09:00,83.4,73.0,30.01,North,0,0.0,0.0,71,0.00,,,0.04,WUHU216HW,2013-05-26 18:09:00,
2013-05-26 13:14:00,82.5,72.1,30.01,North,0,0.0,0.0,71,0.00,,,0.04,WUHU216HW,2013-05-26 18:14:00,
2013-05-26 13:19:00,83.4,72.6,30.01,North,0,0.0,0.0,70,0.00,,,0.04,WUHU216HW,2013-05-26 18:19:00,
2013-05-26 13:24:00,84.0,73.6,30.01,North,0,0.0,0.0,71,0.00,,,0.04,WUHU216HW,2013-05-26 18:24:00,
2013-05-26 13:29:00,84.3,73.5,30.00,North,0,0.0,0.0,70,0.00,,,0.04,WUHU216HW,2013-05-26 18:29:00,
2013-05-26 13:34:00,84.9,73.2,30.00,North,0,0.0,0.0,68,0.00,,,0.04,WUHU216HW,2013-05-26 18:34:00,
2013-05-26 13:39:00,85.2,73.0,30.00,North,0,0.0,0.0,67,0.00,,,0.04,WUHU216HW,2013-05-26 18:39:00,
2013-05-26 13:44:00,85.2,73.0,30.01,North,0,0.0,0.0,67,0.00,,,0.04,WUHU216HW,2013-05-26 18:44:00,
2013-05-26 13:49:00,85.2,72.6,30.00,North,0,0.0,0.0,66,0.00,,,0.04,WUHU216HW,2013-05-26 18:49:00,
2013-05-26 13:54:00,85.1,72.4,30.01,North,0,0.0,0.0,68,0.00,,,0.04,WUHU216HW,2013-05-26 18:54:00,
2013-05-26 13:59:00,84.9,72.7,30.01,North,0,0.0,0.0,67,0.00,,,0.04,WUHU216HW,2013-05-26 18:59:00,
2013-05-26 14:04:00,83.8,72.5,30.00,North,0,0.0,0.0,69,0.00,,,0.04,WUHU216HW,2013-05-26 19:04:00,
2013-05-26 14:09:00,84.0,71.8,30.01,North,0,0.0,0.0,67,0.00,,,0.04,WUHU216HW,2013-05-26 19:09:00,
2013-05-26 14:15:00,84.0,71.8,30.01,North,0,0.0,0.0,67,0.00,,,0.04,WUHU216HW,2013-05-26 19:15:00,
2013-05-26 14:21:00,84.0,72.7,30.00,North,0,0.0,0.0,69,0.00,,,0.04,WUHU216HW,2013-05-26 19:21:00,
2013-05-26 14:26:00,84.5,72.8,30.00,North,0,0.0,0.0,68,0.00,,,0.04,WUHU216HW,2013-05-26 19:26:00,
2013-05-26 14:31:00,85.2,73.5,30.00,North,0,0.0,0.0,68,0.00,,,0.04,WUHU216HW,2013-05-26 19:31:00,
2013-05-26 14:36:00,85.2,73.0,30.00,North,0,0.0,0.0,67,0.00,,,0.04,WUHU216HW,2013-05-26 19:36:00,
2013-05-26 14:41:00,86.3,73.6,30.00,North,0,0.0,0.0,66,0.00,,,0.04,WUHU216HW,2013-05-26 19:41:00,
2013-05-26 14:46:00,86.7,74.0,30.00,North,0,0.0,0.0,66,0.00,,,0.04,WUHU216HW,2013-05-26 19:46:00,
2013-05-26 14:51:00,86.7,74.0,30.00,North,0,0.0,0.0,66,0.00,,,0.04,WUHU216HW,2013-05-26 19:51:00,
2013-05-26 14:56:00,85.6,72.5,30.00,North,0,0.0,0.0,66,0.00,,,0.04,WUHU216HW,2013-05-26 19:56:00,
2013-05-26 15:01:00,87.0,74.3,30.00,North,0,0.0,0.0,66,0.00,,,0.04,WUHU216HW,2013-05-26 20:01:00,
2013-05-26 15:08:00,87.0,72.9,30.00,North,0,0.0,0.0,63,0.00,,,0.04,WUHU216HW,2013-05-26 20:08:00,
2013-05-26 15:13:00,84.9,72.7,30.00,North,0,0.0,0.0,67,0.00,,,0.04,WUHU216HW,2013-05-26 20:13:00,
2013-05-26 15:18:00,86.1,72.1,30.00,North,0,0.0,0.0,63,0.00,,,0.04,WUHU216HW,2013-05-26 20:18:00,
2013-05-26 15:23:00,85.6,72.9,29.99,North,0,0.0,0.0,66,0.00,,,0.04,WUHU216HW,2013-05-26 20:23:00,
2013-05-26 15:28:00,86.1,73.0,29.99,North,0,0.0,0.0,65,0.00,,,0.04,WUHU216HW,2013-05-26 20:28:00,
2013-05-26 15:33:00,85.2,73.0,29.99,North,0,0.0,0.0,67,0.00,,,0.04,WUHU216HW,2013-05-26 20:33:00,
2013-05-26 15:38:00,84.0,73.2,29.99,North,0,0.0,0.0,70,0.00,,,0.04,WUHU216HW,2013-05-26 20:38:00,
2013-05-26 15:43:00,84.5,73.3,29.99,North,0,0.0,0.0,69,0.00,,,0.04,WUHU216HW,2013-05-26 20:43:00,
2013-05-26 15:48:00,84.3,73.1,29.98,North,0,0.0,0.0,69,0.00,,,0.04,WUHU216HW,2013-05-26 20:48:00,
2013-05-26 15:53:00,82.7,71.9,29.98,North,0,0.0,0.0,70,0.00,,,0.04,WUHU216HW,2013-05-26 20:53:00,
2013-05-26 15:58:00,81.5,72.4,29.98,North,0,0.0,0.0,74,0.00,,,0.04,WUHU216HW,2013-05-26 20:58:00,
2013-05-26 16:03:00,81.3,72.2,29.98,North,0,0.0,0.0,74,0.00,,,0.04,WUHU216HW,2013-05-26 21:03:00,
2013-05-26 16:08:00,81.3,72.2,29.98,North,0,0.0,0.0,74,0.00,,,0.04,WUHU216HW,2013-05-26 21:08:00,
2013-05-26 16:13:00,80.4,71.3,29.98,North,0,0.0,0.0,74,0.00,,,0.04,WUHU216HW,2013-05-26 21:13:00,
2013-05-26 16:18:00,81.3,71.8,29.98,North,0,0.0,0.0,73,0.00,,,0.04,WUHU216HW,2013-05-26 21:18:00,
2013-05-26 16:23:00,82.0,72.9,29.98,North,0,0.0,0.0,74,0.00,,,0.04,WUHU216HW,2013-05-26 21:23:00,
2013-05-26 16:28:00,82.2,71.8,29.97,North,0,0.0,0.0,71,0.00,,,0.04,WUHU216HW,2013-05-26 21:28:00,
2013-05-26 16:33:00,82.9,72.9,29.96,North,0,0.0,0.0,72,0.00,,,0.04,WUHU216HW,2013-05-26 21:33:00,
2013-05-26 16:38:00,83.3,72.9,29.96,North,0,0.0,0.0,69,0.00,,,0.04,WUHU216HW,2013-05-26 21:38:00,
2013-05-26 16:43:00,82.9,72.1,29.96,North,0,0.0,0.0,70,0.00,,,0.04,WUHU216HW,2013-05-26 21:43:00,
2013-05-26 16:48:00,82.0,71.6,29.96,North,0,0.0,0.0,71,0.00,,,0.04,WUHU216HW,2013-05-26 21:48:00,
2013-05-26 16:53:00,82.0,71.6,29.96,North,0,0.0,0.0,72,0.00,,,0.04,WUHU216HW,2013-05-26 21:53:00,
2013-05-26 16:58:00,81.6,71.7,29.96,North,0,0.0,0.0,72,0.00,,,0.04,WUHU216HW,2013-05-26 21:58:00,
2013-05-26 17:03:00,81.5,71.6,29.97,North,0,0.0,0.0,72,0.00,,,0.04,WUHU216HW,2013-05-26 22:03:00,
2013-05-26 17:08:00,81.1,70.8,29.97,North,0,0.0,0.0,71,0.00,,,0.04,WUHU216HW,2013-05-26 22:08:00,
2013-05-26 17:13:00,80.7,70.1,29.97,North,0,0.0,0.0,70,0.00,,,0.04,WUHU216HW,2013-05-26 22:13:00,
2013-05-26 17:18:00,80.7,70.1,29.97,North,0,0.0,0.0,70,0.00,,,0.04,WUHU216HW,2013-05-26 22:18:00,
2013-05-26 17:23:00,80.4,69.3,29.97,North,0,0.0,0.0,69,0.00,,,0.04,WUHU216HW,2013-05-26 22:23:00,
2013-05-26 17:28:00,80.7,70.1,29.97,North,0,0.0,0.0,70,0.00,,,0.04,WUHU216HW,2013-05-26 22:28:00,
2013-05-26 17:33:00,81.1,70.0,29.97,North,0,0.0,0.0,69,0.00,,,0.04,WUHU216HW,2013-05-26 22:33:00,
2013-05-26 17:38:00,81.3,70.1,29.97,North,0,0.0,0.0,70,0.00,,,0.04,WUHU216HW,2013-05-26 22:38:00,
2013-05-26 17:43:00,81.3,70.1,29.97,North,0,0.0,0.0,71,0.00,,,0.04,WUHU216HW,2013-05-26 22:43:00,
2013-05-26 17:48:00,80.7,70.9,29.97,North,0,0.0,0.0,72,0.00,,,0.04,WUHU216HW,2013-05-26 22:48:00,
2013-05-26 17:53:00,80.4,70.5,29.97,North,0,0.0,0.0,71,0.00,,,0.04,WUHU216HW,2013-05-26 22:53:00,
2013-05-26 17:58:00,80.4,70.5,29.97,North,0,0.0,0.0,71,0.00,,,0.04,WUHU216HW,2013-05-26 22:58:00,
2013-05-26 18:03:00,80.7,70.9,29.97,North,0,0.0,0.0,72,0.00,,,0.04,WUHU216HW,2013-05-26 23:03:00,
2013-05-26 18:08:00,80.7,70.5,29.97,North,0,0.0,0.0,71,0.00,,,0.04,WUHU216HW,2013-05-26 23:08:00,
2013-05-26 18:13:00,80.7,70.5,29.96,North,0,0.0,0.0,70,0.00,,,0.04,WUHU216HW,2013-05-26 23:13:00,
2013-05-26 18:19:00,80.9,70.7,29.96,North,0,0.0,0.0,71,0.00,,,0.04,WUHU216HW,2013-05-26 23:19:00,
2013-05-26 18:24:00,80.7,69.6,29.96,North,0,0.0,0.0,69,0.00,,,0.04,WUHU216HW,2013-05-26 23:24:00,
2013-05-26 18:29:00,80.7,69.6,29.96,North,0,0.0,0.0,70,0.00,,,0.04,WUHU216HW,2013-05-26 23:29:00,
2013-05-26 18:34:00,80.9,69.4,29.95,North,0,0.0,0.0,69,0.00,,,0.04,WUHU216HW,2013-05-26 23:34:00,
2013-05-26 18:39:00,80.7,69.2,29.95,North,0,0.0,0.0,68,0.00,,,0.04,WUHU216HW,2013-05-26 23:39:00,
2013-05-26 18:44:00,80.9,69.8,29.95,North,0,0.0,0.0,69,0.00,,,0.04,WUHU216HW,2013-05-26 23:44:00,
2013-05-26 18:49:00,80.9,69.8,29.95,North,0,0.0,0.0,68,0.00,,,0.04,WUHU216HW,2013-05-26 23:49:00,
2013-05-26 18:54:00,80.4,68.4,29.95,North,0,0.0,0.0,68,0.00,,,0.04,WUHU216HW,2013-05-26 23:54:00,
2013-05-26 18:59:00,80.2,68.7,29.95,North,0,0.0,0.0,68,0.00,,,0.04,WUHU216HW,2013-05-26 23:59:00,
2013-05-26 19:04:00,80.2,68.7,29.95,North,0,0.0,0.0,69,0.00,,,0.04,WUHU216HW,2013-05-27 00:04:00,
2013-05-26 19:09:00,79.8,67.9,29.95,North,0,0.0,0.0,67,0.00,,,0.04,WUHU216HW,2013-05-27 00:09:00,
2013-05-26 19:14:00,79.7,68.6,29.96,North,0,0.0,0.0,69,0.00,,,0.04,WUHU216HW,2013-05-27 00:14:00,
2013-05-26 19:19:00,79.7,68.6,29.96,North,0,0.0,0.0,70,0.00,,,0.04,WUHU216HW,2013-05-27 00:19:00,
2013-05-26 19:24:00,79.3,68.2,29.95,North,0,0.0,0.0,69,0.00,,,0.04,WUHU216HW,2013-05-27 00:24:00,
2013-05-26 19:29:00,79.1,68.1,29.95,North,0,0.0,0.0,69,0.00,,,0.04,WUHU216HW,2013-05-27 00:29:00,
2013-05-26 19:34:00,78.8,67.3,29.95,North,0,0.0,0.0,68,0.00,,,0.04,WUHU216HW,2013-05-27 00:34:00,
2013-05-26 19:39:00,78.6,67.1,29.95,North,0,0.0,0.0,67,0.00,,,0.04,WUHU216HW,2013-05-27 00:39:00,
2013-05-26 19:44:00,78.4,66.9,29.95,North,0,0.0,0.0,69,0.00,,,0.04,WUHU216HW,2013-05-27 00:44:00,
2013-05-26 19:49:00,78.4,66.9,29.95,North,0,0.0,0.0,69,0.00,,,0.04,WUHU216HW,2013-05-27 00:49:00,
2013-05-26 19:54:00,78.0,66.6,29.95,North,0,0.0,0.0,69,0.00,,,0.04,WUHU216HW,2013-05-27 00:54:00,
2013-05-26 19:59:00,77.5,67.0,29.95,North,0,0.0,0.0,70,0.00,,,0.04,WUHU216HW,2013-05-27 00:59:00,
2013-05-26 20:04:00,77.3,66.8,29.94,North,0,0.0,0.0,70,0.00,,,0.04,WUHU216HW,2013-05-27 01:04:00,
2013-05-26 20:09:00,76.8,66.7,29.94,North,0,0.0,0.0,71,0.00,,,0.04,WUHU216HW,2013-05-27 01:09:00,
2013-05-26 20:14:00,76.8,66.7,29.95,North,0,0.0,0.0,71,0.00,,,0.04,WUHU216HW,2013-05-27 01:14:00,
2013-05-26 20:19:00,76.2,66.6,29.95,North,0,0.0,0.0,72,0.00,,,0.04,WUHU216HW,2013-05-27 01:19:00,
2013-05-26 20:24:00,76.1,66.8,29.95,North,0,0.0,0.0,73,0.00,,,0.04,WUHU216HW,2013-05-27 01:24:00,
2013-05-26 20:29:00,75.9,66.6,29.95,North,0,0.0,0.0,73,0.00,,,0.04,WUHU216HW,2013-05-27 01:29:00,
2013-05-26 20:34:00,75.7,66.8,29.95,North,0,0.0,0.0,74,0.00,,,0.04,WUHU216HW,2013-05-27 01:34:00,
2013-05-26 20:39:00,75.3,66.9,29.95,North,0,0.0,0.0,75,0.00,,,0.04,WUHU216HW,2013-05-27 01:39:00,
2013-05-26 20:44:00,75.2,66.7,29.95,North,0,0.0,0.0,75,0.00,,,0.04,WUHU216HW,2013-05-27 01:44:00,
2013-05-26 20:49:00,75.0,66.5,29.95,North,0,0.0,0.0,75,0.00,,,0.04,WUHU216HW,2013-05-27 01:49:00,
2013-05-26 20:54:00,74.8,66.7,29.95,North,0,0.0,0.0,76,0.00,,,0.04,WUHU216HW,2013-05-27 01:54:00,
2013-05-26 20:59:00,74.4,66.4,29.96,North,0,0.0,0.0,76,0.00,,,0.04,WUHU216HW,2013-05-27 01:59:00,
2013-05-26 21:04:00,74.4,66.4,29.96,North,0,0.0,0.0,77,0.00,,,0.04,WUHU216HW,2013-05-27 02:04:00,
2013-05-26 21:09:00,74.3,66.6,29.96,North,0,0.0,0.0,77,0.00,,,0.04,WUHU216HW,2013-05-27 02:09:00,
2013-05-26 21:14:00,74.1,66.4,29.96,North,0,0.0,0.0,78,0.00,,,0.04,WUHU216HW,2013-05-27 02:14:00,
2013-05-26 21:19:00,74.1,66.4,29.96,North,0,0.0,0.0,78,0.00,,,0.04,WUHU216HW,2013-05-27 02:19:00,
2013-05-26 21:24:00,73.9,66.6,29.96,North,0,0.0,0.0,78,0.00,,,0.04,WUHU216HW,2013-05-27 02:24:00,
2013-05-26 21:29:00,73.7,66.9,29.95,North,0,0.0,0.0,79,0.00,,,0.04,WUHU216HW,2013-05-27 02:29:00,
2013-05-26 21:34:00,73.5,66.7,29.96,North,0,0.0,0.0,79,0.00,,,0.04,WUHU216HW,2013-05-27 02:34:00,
2013-05-26 21:39:00,73.5,66.7,29.96,North,0,0.0,0.0,80,0.00,,,0.04,WUHU216HW,2013-05-27 02:39:00,
2013-05-26 21:44:00,73.4,66.9,29.96,North,0,0.0,0.0,80,0.00,,,0.04,WUHU216HW,2013-05-27 02:44:00,
2013-05-26 21:49:00,73.2,66.7,29.96,North,0,0.0,0.0,80,0.00,,,0.04,WUHU216HW,2013-05-27 02:49:00,
2013-05-26 21:54:00,73.2,66.7,29.97,North,0,0.0,0.0,80,0.00,,,0.04,WUHU216HW,2013-05-27 02:54:00,
2013-05-26 21:59:00,73.2,66.7,29.97,North,0,0.0,0.0,81,0.00,,,0.04,WUHU216HW,2013-05-27 02:59:00,
2013-05-26 22:04:00,73.2,66.7,29.97,North,0,0.0,0.0,81,0.00,,,0.04,WUHU216HW,2013-05-27 03:04:00,
2013-05-26 22:09:00,73.0,66.9,29.97,North,0,0.0,0.0,81,0.00,,,0.04,WUHU216HW,2013-05-27 03:09:00,
2013-05-26 22:14:00,73.0,66.9,29.98,North,0,0.0,0.0,82,0.00,,,0.04,WUHU216HW,2013-05-27 03:14:00,
2013-05-26 22:19:00,72.8,67.0,29.98,North,0,0.0,0.0,82,0.00,,,0.04,WUHU216HW,2013-05-27 03:19:00,
2013-05-26 22:24:00,72.6,66.8,29.98,North,0,0.0,0.0,82,0.00,,,0.04,WUHU216HW,2013-05-27 03:24:00,
2013-05-26 22:29:00,72.5,66.7,29.98,North,0,0.0,0.0,82,0.00,,,0.04,WUHU216HW,2013-05-27 03:29:00,
2013-05-26 22:34:00,72.5,66.7,29.98,North,0,0.0,0.0,83,0.00,,,0.04,WUHU216HW,2013-05-27 03:34:00,
2013-05-26 22:39:00,72.3,66.8,29.99,North,0,0.0,0.0,83,0.00,,,0.04,WUHU216HW,2013-05-27 03:39:00,
2013-05-26 22:44:00,72.3,66.8,29.99,North,0,0.0,0.0,84,0.00,,,0.04,WUHU216HW,2013-05-27 03:44:00,
2013-05-26 22:49:00,72.3,66.8,29.99,North,0,0.0,0.0,84,0.00,,,0.04,WUHU216HW,2013-05-27 03:49:00,
2013-05-26 22:54:00,72.1,67.0,29.99,North,0,0.0,0.0,84,0.00,,,0.04,WUHU216HW,2013-05-27 03:54:00,
2013-05-26 22:59:00,72.1,67.0,30.00,North,0,0.0,0.0,84,0.00,,,0.04,WUHU216HW,2013-05-27 03:59:00,
2013-05-26 23:04:00,71.9,66.8,30.00,North,0,0.0,0.0,85,0.00,,,0.04,WUHU216HW,2013-05-27 04:04:00,
2013-05-26 23:09:00,71.7,67.0,30.00,North,0,0.0,0.0,85,0.00,,,0.04,WUHU216HW,2013-05-27 04:09:00,
2013-05-26 23:14:00,71.6,66.8,30.00,North,0,0.0,0.0,85,0.00,,,0.04,WUHU216HW,2013-05-27 04:14:00,
2013-05-26 23:19:00,71.4,66.6,30.00,North,0,0.0,0.0,85,0.00,,,0.04,WUHU216HW,2013-05-27 04:19:00,
2013-05-26 23:24:00,71.2,66.8,30.00,North,0,0.0,0.0,86,0.00,,,0.04,WUHU216HW,2013-05-27 04:24:00,
2013-05-26 23:29:00,71.2,66.8,30.01,North,0,0.0,0.0,86,0.00,,,0.04,WUHU216HW,2013-05-27 04:29:00,
2013-05-26 23:34:00,71.2,66.8,30.01,North,0,0.0,0.0,86,0.00,,,0.04,WUHU216HW,2013-05-27 04:34:00,